TimeEDT,TemperatureF,Dew PointF,Humidity,Sea Level PressureIn,VisibilityMPH,Wind Direction,Wind SpeedMPH,Gust SpeedMPH,PrecipitationIn,Events,Conditions,WindDirDegrees,DateUTC
12:58 AM,81.0,72.5,75,30.13,10.0,ESE,8.1,-,N/A,,Partly Cloudy,110,2013-06-24 04:58:00
1:58 AM,81.5,73.4,76,30.12,10.0,ESE,9.2,-,N/A,,Partly Cloudy,110,2013-06-24 05:58:00
2:58 AM,80.1,74.3,82,30.10,10.0,ESE,8.1,-,N/A,,Clear,110,2013-06-24 06:58:00
3:58 AM,81.1,72.0,74,30.10,10.0,ESE,8.1,-,N/A,,Clear,120,2013-06-24 07:58:00
4:58 AM,81.0,70.9,71,30.09,10.0,ESE,8.1,-,N/A,,Clear,120,2013-06-24 08:58:00
5:58 AM,80.6,72.3,76,30.11,10.0,ESE,8.1,-,N/A,,Partly Cloudy,120,2013-06-24 09:58:00
6:58 AM,81.0,72.1,74,30.12,10.0,ESE,6.9,-,N/A,,Partly Cloudy,110,2013-06-24 10:58:00
7:58 AM,83.1,72.5,70,30.12,10.0,East,10.4,-,N/A,,Clear,100,2013-06-24 11:58:00
8:58 AM,84.4,73.6,70,30.15,10.0,East,10.4,-,N/A,,Clear,80,2013-06-24 12:58:00
9:47 AM,86.0,73.4,66,30.15,10.0,ESE,13.8,-,N/A,,Light Drizzle,110,2013-06-24 13:47:00
9:50 AM,86.0,73.4,66,30.15,10.0,East,11.5,-,N/A,,Partly Cloudy,100,2013-06-24 13:50:00
9:58 AM,85.1,73.8,69,30.16,10.0,East,11.5,-,0.00,,Partly Cloudy,90,2013-06-24 13:58:00
10:58 AM,86.2,72.9,64,30.17,10.0,ESE,8.1,-,N/A,,Clear,110,2013-06-24 14:58:00
11:58 AM,84.0,73.8,71,30.17,10.0,East,10.4,-,N/A,,Clear,100,2013-06-24 15:58:00
12:55 PM,85.5,74.1,69,30.17,10.0,ESE,11.5,-,0.00,,Scattered Clouds,110,2013-06-24 16:55:00
1:58 PM,85.8,74.1,68,30.15,10.0,East,10.4,-,N/A,,Partly Cloudy,100,2013-06-24 17:58:00
2:13 PM,86.0,75.2,70,30.14,10.0,East,18.4,-,N/A,Rain,Light Rain,90,2013-06-24 18:13:00
2:18 PM,82.4,75.2,79,30.15,6.0,SE,16.1,32.2,N/A,Rain,Light Rain,130,2013-06-24 18:18:00
2:25 PM,78.8,71.6,78,30.14,4.0,ESE,4.6,20.7,N/A,Rain,Rain,120,2013-06-24 18:25:00
2:30 PM,78.8,71.6,78,30.14,6.0,SE,5.8,20.7,N/A,Rain,Light Rain,130,2013-06-24 18:30:00
2:35 PM,78.8,73.4,83,30.14,8.0,SE,3.5,-,N/A,Rain,Light Rain,140,2013-06-24 18:35:00
2:37 PM,78.8,75.2,89,30.13,10.0,SE,4.6,-,N/A,,Scattered Clouds,130,2013-06-24 18:37:00
2:58 PM,84.0,74.7,73,30.13,10.0,East,11.5,-,0.00,,Clear,80,2013-06-24 18:58:00
3:58 PM,86.5,74.1,66,30.12,10.0,East,10.4,18.4,N/A,,Clear,100,2013-06-24 19:58:00
4:58 PM,86.7,74.1,66,30.09,10.0,East,15.0,-,N/A,,Clear,90,2013-06-24 20:58:00
5:58 PM,85.8,74.1,68,30.09,10.0,East,16.1,-,N/A,,Clear,90,2013-06-24 21:58:00
6:58 PM,85.1,73.6,68,30.10,10.0,East,11.5,-,N/A,,Clear,100,2013-06-24 22:58:00
7:58 PM,82.8,74.3,75,30.09,10.0,East,9.2,-,N/A,,Scattered Clouds,90,2013-06-24 23:58:00
8:58 PM,81.9,73.4,75,30.10,10.0,East,9.2,-,N/A,,Clear,90,2013-06-25 00:58:00
9:58 PM,82.0,73.4,75,30.11,10.0,East,10.4,-,N/A,,Partly Cloudy,90,2013-06-25 01:58:00
10:58 PM,82.4,73.6,75,30.12,10.0,East,9.2,-,N/A,,Partly Cloudy,90,2013-06-25 02:58:00
11:58 PM,82.2,73.8,75,30.13,10.0,ESE,9.2,-,N/A,,Partly Cloudy,110,2013-06-25 03:58:00